TELSTAR 18V (APSTAR 5C) (43611 NORAD) Tracking and Keplerian Element Data

This shows tracking and keplerian element data for the satellite.

Feedback or suggestion? Click here.




ElementValue
Catalog43611
NameTELSTAR 18V (APSTAR 5C)
Epoch Orbit47
Epoch Day281.93100698
Epoch Year2018
RAAN290.5618
Inclination0.0427
Eccentricity0.0001287
Argument of Perigee248.2402
Mean Anonmoly310.3769
Mean Motion1.00271483
Decay Rate-3.28E-06
L11 43611U 18069A 18281.93100698 -.00000328 00000-0 00000-0 0 9999
L22 43611 0.0427 290.5618 0001287 248.2402 310.3769 1.00271483 477

Live tracking and technical data element details for TELSTAR 18V (APSTAR 5C) (NORAD 43611). TELSTAR 18V (APSTAR 5C) can be tracked NOW for your location showing map with azimuth and elevation plus other details from your city location.

Track the satellite on the map from your city or location and see movement details for azimuth, elevation, latitude, longitude, range, height, and movement on the map or in text.







IsCatalogInMostPopularTable: catalog: 43611, numindb: 60
Update: records affected: 1



GetName: 43611 TELSTAR 18V (APSTAR 5C)

Hit Count: updated at: Tue, 20 Nov 2018 12:24:13 GMT